Location: Mohawk View
(42.7837°N, 73.7885°W)
Time: 02:12:45
(UTC+00:00)

In-Cosmos 22 - Pass Details

Date: 17 June 2021
Orbit: 786 x 876 km, 81.2° (Epoch: 02 August)

Event Time Altitude Azimuth Distance (km) Brightness Sun altitude
Exits shadow 02:04:36 - 190° (S) 2,863 6.6 -13.0°
Reaches altitude 10° 02:05:56 10° 191° (S) 2,344 6.1 -13.1°
Maximum altitude 02:11:12 84° 279° (W) 796 4.1 -13.7°
Drops below altitude 10° 02:16:31 10° 9° (N) 2,358 7.2 -14.3°
Sets 02:18:55 0° 10° (N) 3,296 8.0 -14.6°
